www.pogodaiklimat.ru

Погода и климат >> Архив погоды >> Канада >> Stefansson Island


ПОГОДА в Stefansson Island

  • Прогноз погоды в Stefansson Island
  • Монитор погоды в Stefansson Island
  • Климат города

АРХИВ ПОГОДЫ в Stefansson Island

Время (UTC), дата Ветер
(напр.,м/с)
 
Видим.   Явления Облачность Т
(С)
Тd
(С)
f
(%)
Тe
(С)
Тes
(С)
Комфортность P
(гПа)
Po
(гПа)
Тmin
(С)
Tmax
(С)
R
(мм)
R24
(мм)
S
(см)
21 8.12 З 5 н/о н/о -27.3 -30.1 77 -39 -39 опасность
обморожения
1017.0 1015.5
00 9.12 З 5 н/о н/о -28.5 -31.5 75 -41 -41 опасность
обморожения
1017.1 1015.6
03 9.12 З 6 н/о н/о -29.0 -32.0 75 -42 -42 опасность
обморожения
1015.9 1014.4
06 9.12 З 6 н/о н/о -30.9 -34.1 73 -44 -44 опасность
обморожения
1015.4 1013.9
09 9.12 З 6 н/о н/о -33.4 -36.9 71 -48 -48 опасность
обморожения
1014.8 1013.3
12 9.12 З 5 н/о н/о -33.2 -36.7 71 -47 -47 опасность
обморожения
1013.8 1012.3 -33.5 38
15 9.12 З 6 н/о н/о -32.3 -35.7 72 -46 -46 опасность
обморожения
1012.7 1011.2
18 9.12 З 6 н/о н/о -28.9 -31.9 75 -42 -42 опасность
обморожения
1012.2 1010.7 -33.5 -28.8
21 9.12 З 6 н/о н/о -28.3 -31.2 76 -41 -41 опасность
обморожения
1012.0 1010.5
00 10.12 З 7 н/о н/о -24.5 -27.0 80 -37 -37 опасность
обморожения
1011.6 1010.1 -33.5 -24.5
03 10.12 СЗ 7 н/о н/о -22.7 -25.1 81 -35 -35 опасность
обморожения
1011.3 1009.8
06 10.12 СЗ 7 н/о н/о -20.2 -22.2 84 -32 -32 опасность
обморожения
1011.6 1010.1 -33.5 -20.2 5
09 10.12 СЗ 8 н/о н/о -19.2 -21.2 84 -31 -31 опасность
обморожения
1012.5 1011.0
12 10.12 СЗ 7 н/о н/о -22.1 -24.5 81 -34 -34 опасность
обморожения
1012.9 1011.4 -24.5 -20.2 30
15 10.12 З 7 н/о н/о -28.0 -30.9 76 -42 -42 опасность
обморожения
1013.2 1011.7
18 10.12 З 6 н/о н/о -28.0 -30.9 76 -41 -41 опасность
обморожения
1013.7 1012.2 -31.6 -19.1
21 10.12 З 6 н/о н/о -26.9 -29.6 78 -40 -40 опасность
обморожения
1014.2 1012.7
00 11.12 З 9 н/о н/о -20.6 -22.7 83 -34 -34 опасность
обморожения
1013.5 1012.0 -28.9 -20.6
03 11.12 З 9 н/о н/о -23.6 -26.1 80 -38 -38 опасность
обморожения
1013.4 1011.9
06 11.12 З 7 н/о н/о -25.7 -28.4 78 -39 -39 опасность
обморожения
1013.0 1011.5 -28.9 -19.1 8
09 11.12 З 7 н/о н/о -26.5 -29.2 78 -40 -40 опасность
обморожения
1012.6 1011.1
12 11.12 З 7 н/о н/о -24.6 -27.1 80 -38 -38 опасность
обморожения
1011.8 1010.3 -26.7 -19.1 30
15 11.12 СЗ 9 н/о н/о -17.8 -19.6 86 -30 -30 1010.6 1009.1
18 11.12 СЗ 8 н/о н/о -17.2 -19.0 86 -29 -29 1010.0 1008.5
21 11.12 СЗ 8 н/о н/о -21.4 -23.6 82 -34 -34 опасность
обморожения
1010.5 1009.0
00 12.12 СЗ 7 н/о н/о -22.0 -24.3 82 -34 -34 опасность
обморожения
1010.4 1008.9
03 12.12 СЗ 9 н/о н/о -21.1 -23.2 83 -34 -34 опасность
обморожения
1009.5 1008.0
06 12.12 СЗ 7 н/о н/о -20.5 -22.6 83 -32 -32 опасность
обморожения
1009.4 1007.9 17
09 12.12 СЗ 7 н/о н/о -20.3 -22.3 84 -32 -32 опасность
обморожения
1009.2 1007.7
12 12.12 СЗ 6 н/о н/о -19.7 -21.6 85 -30 -30 1008.4 1006.9 -22.5 30
15 12.12 СЗ 6 н/о н/о -20.6 -22.7 83 -32 -32 опасность
обморожения
1008.5 1007.0
18 12.12 З 7 н/о н/о -21.0 -23.2 82 -33 -33 опасность
обморожения
1008.6 1007.1 -22.6 -19.6
00 13.12 ЮЗ 5 н/о н/о -24.0 -26.4 80 -35 -35 опасность
обморожения
1009.1 1007.6
03 13.12 З 7 н/о н/о -23.2 -25.6 81 -36 -36 опасность
обморожения
1007.8 1006.3
06 13.12 З 8 н/о н/о -23.4 -25.8 81 -37 -37 опасность
обморожения
1008.1 1006.6 8
09 13.12 СЗ 4 н/о н/о -22.2 -24.5 81 -32 -32 опасность
обморожения
1008.2 1006.7
12 13.12 СЗ 7 н/о н/о -21.3 -23.5 82 -33 -33 опасность
обморожения
1009.0 1007.5 -24.4 30
15 13.12 СЗ 9 н/о н/о -19.2 -21.2 84 -32 -32 опасность
обморожения
1009.3 1007.8
18 13.12 СЗ 8 н/о н/о -17.8 -19.6 86 -29 -29 1011.0 1009.5 -17.6
00 14.12 СЗ 6 н/о н/о -19.0 -21.0 84 -30 -30 1015.5 1014.0
03 14.12 СЗ 4 н/о н/о -19.5 -21.5 84 -28 -28 1017.3 1015.8
06 14.12 СЗ 5 н/о н/о -21.2 -23.3 83 -31 -31 опасность
обморожения
1018.9 1017.4 16
09 14.12 СЗ 5 н/о н/о -20.2 -22.2 84 -30 -30 1019.8 1018.3
12 14.12 СЗ 4 н/о н/о -20.2 -22.2 84 -29 -29 1020.5 1019.0 -21.8 30
15 14.12 СЗ 4 н/о н/о -20.1 -22.2 83 -29 -29 1020.6 1019.1
18 14.12 СЗ 3 н/о н/о -20.1 -22.1 84 -28 -28 1020.5 1019.0 -19.8
21 14.12 СЗ 3 н/о н/о -20.4 -22.5 83 -28 -28 1019.6 1018.1
00 15.12 З 3 н/о н/о -20.5 -22.6 83 -28 -28 1018.9 1017.4
03 15.12 З 3 н/о н/о -20.7 -22.8 83 -29 -29 1017.6 1016.1
06 15.12 СЗ 3 н/о н/о -20.6 -22.7 83 -28 -28 1015.9 1014.4
09 15.12 З 4 н/о н/о -20.5 -22.6 83 -29 -29 1014.6 1013.1
12 15.12 З 3 н/о н/о -20.5 -22.6 83 -28 -28 1013.8 1012.3 -20.7 30
18 15.12 З 3 н/о н/о -21.7 -23.9 82 -29 -29 1012.2 1010.7 -20.5 0.2

 

Местоположение метеостанции Stefansson Island (Канада): широта 73.77 долгота -105.20 высота над уровнем моря 11 м.

В архиве по умолчанию представлена погода в Stefansson Island за последнюю неделю. Архивные данные за месяц целиком и за предыдущие месяцы, начиная с января 2011 года, Вы можете получить, выбрав интересующий диапазон дат из раскрывающегося списка и нажав кнопку "Ввод!".

Внимание! Время в таблицах - всемирное. Для получения местного времени необходимо прибавить поправку, которая в Stefansson Island равна -7 ч.

Смотрите также архив погоды в соседних городах и на ближайших метеорологических станциях:

Погода в Resolute Airport (Канада) (326 км)
Погода в Resolute Cs (Канада) (326 км)
Погода в Aulvik Ntl Park (Канада) (453 км)
Погода в Mould Bay Cs (Канада) (488 км)
Погода в Cambridge Bay Gsn (Канада) (519 км)
Погода в Cambridge Bay Arpt (Канада) (519 км)
Погода в Cape Peel West (Канада) (535 км)
Погода в Holman (Канада) (542 км)
Погода в Isachsen (aut) (Канада) (559 км)
Погода в Spence bay (Канада) (619 км)

Пояснения к столбцам:

Ветер - указаны скорость ветра в м/с - средняя за 10 мин, порывы в срок и между сроками (в фигурных скобках) и направление, откуда дует ветер: С - северный, СВ - северо-восточный, В - восточный, ЮВ - юго-восточный, Ю - южный, ЮЗ - юго-западный, З - западный, СЗ - северо-западный.
Видимость - горизонтальная дальность видимости в метрах или километрах. При видимости от 1 до 10 км при отсутствии осадков обычно наблюдается дымка, при ухудшении видимости до 1 км и менее - туман. В сухую погоду видимость может ухудшаться дымом, пылью или мглою.
Явления - указаны атмосферные явления, наблюдавшиеся в срок или в последний час перед сроком; фигурными скобками обозначены явления, наблюдавшиеся между сроками (за 1-3 часа до срока); квадратными скобками обозначены град или гололедные отложения с указанием их диаметра в мм.
Облачность - указаны через наклонную черту общая и нижняя облачность в баллах и высота нижней границы облаков в метрах; квадратными скобками обозначены формы облаков: Ci - перистые, Cs - перисто-слоистые, Cc - перисто-кучевые, Ac - высококучевые, As - высокослоистые, Sc - слоисто-кучевые, Ns - слоисто-дождевые, Cu - кучевые, Cb - кучево-дождевые. Подробнее классификацию облаков см. в Атласе облаков (PDF).
T - Температура воздуха - температура, измеренная на высоте 2 м над землей.
Td - Температура точки росы - температура, при понижении до которой содержащийся в воздухе водяной пар достигнет насыщения.
f - Относительная влажность воздуха - влажноcть воздуха, измеренная на высоте 2 м над землей.
Te - Эффективная температура - температура, которую ощущает одетый по сезону человек в тени. Характеристика душности погоды. При расчете учитывается влияние влажности воздуха и скорости ветра на теплоощущения человека.
Tes - Эффективная температура на солнце - температура, которую ощущает человек, с поправкой на солнечный нагрев. Характеристика знойности погоды. Зависит от высоты солнца над горизонтом, облачности и скорости ветра. Ночью, в пасмурную погоду, а также при ветре 12 м/с и более поправка равна нулю.
P - Атмосферное давление - приведенное к уровню моря атмосферное давление.
Po - Атмосферное давление - измеренное на уровне метеостанции атмосферное давление.
Tmin - Минимальная температура - минимум температуры воздуха на высоте 2 м над землей.
Tmax - Максимальная температура - максимум температуры воздуха на высоте 2 м над землей.
R - Количество осадков - Количество выпавших осадков за период времени, мм. При наведении курсора мыши на число - период времени, за который выпало указанное количество осадков.
R24 - Количество осадков - Количество выпавших осадков за 24 часа, мм.
S - Снежный покров - Высота снежного покрова, см. При наведении курсора мыши на число - состояние снежного покрова и степень покрытия местности в баллах.